Regional Weather Roundup
Issued by NWS

Home | Current Version | Previous Version | Text Only | Print | Product List | Glossary Off
Versions: 1 2 3 4 5 6 7 8 9 10 11 12 13 14 15 16 17 18 19 20 21 22 23 24 25 26 27 28 29 30 31 32 33 34 35 36 37 38 39 40 41 42 43 44 45 46 47 48 49 50

000
ASUS45 KBOU 201107
RWRCO

WEATHER ROUNDUP FOR COLORADO
NATIONAL WEATHER SERVICE DENVER/BOULDER CO
500 AM MDT MON APR 20 2015

NOTE: "FAIR" INDICATES FEW OR NO CLOUDS BELOW 12000 FEET WITH NO
SIGNIFICANT WEATHER AND/OR OBSTRUCTIONS TO VISIBILITY.

COZ001>005-013-030-031-201200-
...NORTHWEST COLORADO...

CITY           SKY/WX    TMP DP  RH WIND       PRES   REMARKS
CRAIG          CLOUDY    34  32  92 SW6       30.02F WCI  29
HAYDEN         CLOUDY    34  28  80 CALM      30.02S
MEEKER         MOCLDY    35  31  85 N3        30.01S
MOUNT WERNER   NOT AVBL
STEAMBOAT SPGS CLOUDY    31  30  97 CALM      30.02S
WALDEN         CLOUDY    28  25  86 N3        30.00S
$$

COZ006>008-011-201200-
...WEST CENTRAL VALLEYS...

CITY           SKY/WX    TMP DP  RH WIND       PRES   REMARKS
GRAND JUNCTION PTCLDY    43  40  89 E12       29.98S
MONTROSE       CLOUDY    43  39  86 SE8       30.02F
EAGLE          MOCLDY    36  36 100 E7        30.03S
RIFLE          MOCLDY    38  34  85 E3        30.01S
DELTA          CLOUDY    45  42  87 CALM      30.02S
NUCLA          MOCLDY    41  36  81 CALM      30.03S
$$

COZ017>023-064>068-201200-
...SOUTHWEST COLORADO...

CITY           SKY/WX    TMP DP  RH WIND       PRES   REMARKS
DURANGO        CLOUDY    32  22  66 SE3       30.01R
CORTEZ         CLEAR     33  28  81 E6        29.99F WCI  28
PAGOSA SPRINGS MOCLDY    40  26  59 CALM      30.03F
TELLURIDE      CLOUDY    33  32  97 SE6       30.08F WCI  27
WOLF CREEK PAS CLOUDY    23  19  86 SW20G26   30.12F WCI   8
$$

COZ009-010-012-014-032>034-037-058>063-201200-
...CENTRAL COLORADO...

CITY           SKY/WX    TMP DP  RH WIND       PRES   REMARKS
ASPEN          CLOUDY    33  28  81 CALM      30.01R
BUENA VISTA    CLOUDY    26  23  87 CALM      30.01S
COPPER MTN     CLOUDY    25  19  80 W15G23    30.03R WCI  12
BERTHOUD PASS  CLOUDY    14   7  73 MISG      30.00F
COTTONWOOD PAS FLURRIES  30  25  80 CALM      30.00F
GUNNISON       PTCLDY    34  28  80 N5        30.05F WCI  30
KREMMLING      LGT SNOW  30  28  93 CALM      30.02F
LEADVILLE      LGT SNOW  25  23  92 N8        30.00S FOG     WCI  16
MONARCH PASS   CLOUDY    21  19  93 MISG      30.15S
SALIDA         MOCLDY    32  28  88 CALM      30.07F
SUNLIGHT       FOG       30  30 100 W6        30.10S VSB 1/4 WCI  24
WILKERSON PASS CLOUDY    21  19  93 SW5       30.03S FOG     WCI  15
$$

COZ069>075-201200-
...SAN LUIS VALLEY/SANGRE DE CRISTO MOUNTAINS...

CITY           SKY/WX    TMP DP  RH WIND       PRES   REMARKS
ALAMOSA        CLOUDY    36  26  67 CALM      30.01R
LA VETA PASS   FLURRIES  27  23  86 SW7       30.03S WCI  19
SAGUACHE       MOCLDY    32  30  93 W3        30.02F
$$

COZ035-036-038>040-201200-
...NORTHERN COLORADO FRONT RANGE...

CITY           SKY/WX    TMP DP  RH WIND       PRES   REMARKS
DENVER INTL AP CLOUDY    34  28  79 NE8       30.03F WCI  27
DMNS CITY PARK   N/A     35  25  65 NE3G10    30.05R
AURORA         CLOUDY    33  28  81 NE7       30.04S WCI  27
FRONT RANGE AP NOT AVBL
ERIE MUNI ARPT FLURRIES  35  32  90 N7        30.05S WCI  29
BOULDER MUN AP FLURRIES  34  32  93 CALM      30.04F
CENTENNIAL     CLOUDY    35  24  64 NE6       30.03S WCI  30
BROOMFIELD     CLOUDY    36  30  80 N3        30.04F
FORT COLLINS   MOCLDY    34  28  80 CALM      30.06F
LONGMONT       CLOUDY    36  32  85 NE6       30.07F
$$

COZ041-046-047-076>085-087-088-201200-
...PIKES PEAK/PALMER DIVIDE AND SOUTHERN FOOTHILLS...

CITY           SKY/WX    TMP DP  RH WIND       PRES   REMARKS
COLO. SPRINGS  MOCLDY    34  27  75 S8        30.01F WCI  27
A. F. ACADEMY  CLOUDY    33  26  73 N2        30.00S
ELLICOTT       CLOUDY   N/A N/A N/A SW3       30.00F
FALCON         CLOUDY    33  27  76 CALM      30.02S
FORT CARSON    CLOUDY    34  30  85 CALM      30.00F
LIMON          CLOUDY    31  28  89 CALM      30.02S
MONUMENT HILL  CLOUDY    32  28  86 NW3       30.00S
TRINIDAD       CLOUDY    40  33  76 CALM      29.99F
$$

COZ042>045-048>051-090-091-201200-
...NORTHEAST COLORADO...

CITY           SKY/WX    TMP DP  RH WIND       PRES   REMARKS
GREELEY ARPT   CLOUDY    34  27  75 W5        30.06F WCI  30
AKRON          CLOUDY    35  26  69 W7        30.01F WCI  29
BURLINGTON     CLOUDY    32  27  81 W8        30.02S WCI  25
WRAY           MOCLDY    33  27  80 W8        30.01F WCI  26
STERLING       CLOUDY    34  27  75 NW9       30.01S WCI  26
HOLYOKE        CLEAR     32  28  86 W9        30.00F WCI  24
FORT MORGAN    CLOUDY    37  28  70 W9        30.04S
$$

COZ086-089-092>099-201200-
...SOUTHEAST COLORADO...

CITY           SKY/WX    TMP DP  RH WIND       PRES   REMARKS
PUEBLO         PTCLDY    37  30  75 NE7       30.01F
LA JUNTA       PTCLDY    40  30  67 CALM      30.02F
LAMAR          CLOUDY    42  35  76 CALM      30.00F
SPRINGFIELD      N/A     38  34  85 NW3       30.01F
$$



USA.gov is the U.S. government's official web portal to all federal, state and local government web resources and services.